AMOS 5

导读

AMOS-5是以色列Spacecom公司发射的通信卫星,于北京时间2011年12月11日08时在拜科努尔航天发射场由质子-M火箭搭载升空。该卫星定点于东经17度地球同步轨道,主要为非洲、欧洲和中东地区提供通信和广播服务,设计寿命15年。它拓展了Spacecom的服务覆盖范围,增强了区域宽带通信、电视转播等业务能力,是以色列商用通信卫星布局的重要节点。

基本信息
目录编号:
37950
目录名称:
AMOS 5
国际标识:
2011-074A
轨道中心:
EARTH
卫星名称:
AMOS 5
卫星全名:
--
卫星状态:
在轨 (已飞行5306 天)
发射日期:
2011-12-11 UTC
国别 :
以色列 (IL)
星等 :
--
轨道信息
数据来源 国际轨道数据 AOE轨道数据
星历时间 2026-06-20T02:22:18+0800
1天前
查看轨道信息
2026-06-21T04:00:00+0800
9小时前
查看轨道信息
半长轴 42194.976km 42195.228km
偏心率 0.000316 0.0003256
轨道倾角 8.827° 8.829°
近地点辐角 30.775° 30.545°
升交点赤经 60.725° 60.712°
平近点角 168.401° 193.704°
近地点 35803.505km 35803.352km
远地点 35830.173km 35830.83km
周期 1437.642分钟 1437.655分钟
每日圈数 1.00164 1.001631
详细信息
使用方式:
暂无
2D轨道图
3D轨道图
轨道高度分析图
轨道倾角分析图
轨道综合分析图
查看轨道综合分析图